{"data":{"norad_id":55048,"epoch":"2026-09-21T22:56:28.140000Z","epoch_age_seconds":39070,"freshness":"FRESH","line1":"1 55048U 23001AR  26264.95588125  .00009692  00000+0  26651-3 0  9999","line2":"2 55048  97.1755 315.3706 0012269 110.4652 249.7912 15.37319068207266","mean_motion":15.37319068,"eccentricity":0.0012269,"inclination_deg":97.1755,"raan_deg":315.3706,"arg_perigee_deg":110.4652,"mean_anomaly_deg":249.7912,"bstar":0.00026651,"rev_number":20726,"period_min":93.669559558211,"perigee_km":445.65848728466,"apogee_km":462.42328538214,"semimajor_km":6832.1778863334,"source":"CELESTRAK","updated_at":"2026-09-22T09:00:25.267465Z"}}